THORAD AGENA D DEB, 4644

Orbit data source: Space-Track

THORAD AGENA D DEB, 4644 is space debris in SSO originally from a launch on Wed, 08 Apr 1970 UTC launched from the Air Force Western Test Range (AFWTR). Debris objects in space refer to the collection of defunct objects orbiting the Earth. Examples of debris include non-operational satellites, rocket bodies, and fragments generated from explosions, collisions, or faulty payload assembly.

Loading next visibility...
Identifier
4644, 1970-025AC
Orbit
SSO
Country
Flag of USUS
Related business
Manufacturer
Unknown
Mission
Spacecraft
Bus & Motor
Unknown
Mass
Unknown
Launch date (UTC)
1970-04-08 (56 years ago)
Launch vehicle
Unknown
Launch site
Air Force Western Test Range (AFWTR)
Object type
Payload
Rocket body
Debris
Shape & HBR
Unknown shape, 0.1 m
Radar Cross Section
Medium (>0.1 m² and <1 m²)

Expand to show TLE details & history
Last TLE update: 5 hours ago

TLE from 5 hours ago
0 THORAD AGENA D DEB
1 04644U 70025AC  25288.66388650  .00000263  00000-0  40892-3 0  9996
2 04644  99.5715 182.9095 0009891 190.0778 198.6306 13.60326762743934
Epoch: 2025-10-15T15:55Z
TLE epoch observation values (Epoch: 2025-10-15T15:55:59.793Z)
Latitude
28.28045°
Longitude
-85.70256°
Altitude
1,044.843 km
Speed
7.328 km/s
True Right ascension
11h 50m 55s
True Declination
28° 08' 34"
Sunlit
Object was in daylight at epoch
Visualization orbit readout
Latitude
Unknown
Longitude
Unknown
Altitude
Unknown
Speed
Unknown
Apparent Right ascension
Unknown
Apparent Declination
Unknown
Sunlit
N/A
Visualization observer readout
Local Sidereal Time
15:59:41
Azimuth
Unknown
Elevation
Unknown
Doppler factor
Unknown
Orbital elements
Apogee altitude
1,039.115 km
Perigee altitude
1,024.457 km
Semi-major axis
7,409.923 km
Eccentricity
0.00099
Inclination
99.5715°
RAAN
182.9095°
Arg. of periapsis
190.0778°
True anomaly
198.59443°
Mean anomaly
198.6306°
Eccentric anomaly
198.61251°
Mean motion
3.40269 °/min
Orbital period
105.8 mins
BSTAR
0.00040892

Documentation

Showing up to 5 results
|